Probability
0 0 0 0 0 0 0 0 0 0 0 0 0 0 0 0 0 0 0 0 0 0 0 1 2 3 3 3 3 2 1 0 0 0 0 0 0 0 0 0 0 0 0 0
0 0 0 0 0 0 0 0 0 0 0 0 0 0 0 0 0 0 0 0 0 0 0 1 2 3 4 4 3 2 1 0 0 0 0 0 0 0 0 0 0 0 0 0
0 0 0 0 0 0 0 0 0 0 0 0 0 0 0 0 0 0 0 0 0 0 0 1 2 4 6 6 3 1 0 0 0 0 0 0 0 0 0 0 0 0 0 0
0 0 0 0 0 0 0 0 0 0 0 0 0 0 0 0 0 0 0 0 0 0 1 2 4 6 7 7 4 1 0 0 0 0 0 0 0 0 0 0 0 0 0 0
0 0 0 0 0 0 0 0 0 0 0 0 0 0 0 0 0 0 0 0 0 0 1 3 5 6 7 7 5 3 1 1 0 0 0 0 0 0 1 1 0 0 0 0
0 0 0 0 0 0 0 0 0 0 0 0 0 0 0 0 0 0 0 0 0 0 0 2 4 6 6 6 4 3 3 2 1 0 0 0 0 1 2 2 1 0 0 0
0 0 0 0 0 0 0 0 0 0 0 0 0 0 0 0 0 0 0 0 0 0 0 0 2 4 5 4 3 3 3 3 2 0 0 0 0 2 3 3 2 1 1 0
0 0 0 0 0 0 0 0 0 0 0 0 0 0 0 0 0 0 0 0 0 0 0 0 1 3 4 4 3 3 3 2 1 0 0 0 1 2 3 3 3 3 2 1
0 0 0 0 0 0 0 0 0 0 0 0 0 0 0 0 0 0 0 0 0 0 0 0 1 3 3 3 2 2 2 1 0 0 1 1 2 2 3 3 3 3 3 3
0 0 0 0 0 0 0 0 0 0 0 0 0 0 0 0 0 0 0 0 0 0 0 1 2 3 2 1 1 1 1 0 0 0 1 2 3 3 3 3 3 3 3 3
0 0 0 0 0 0 0 0 0 0 0 0 0 0 0 0 0 0 0 0 0 0 0 1 2 3 2 0 0 0 0 0 0 0 0 1 3 3 3 3 3 3 3 3
0 0 0 0 0 0 0 0 0 0 0 0 0 0 0 0 0 0 0 0 0 0 0 1 3 3 2 1 0 0 0 0 0 0 0 1 2 3 3 3 3 3 3 3
0 0 0 0 0 0 0 0 0 0 0 0 0 0 0 0 0 0 0 0 0 0 1 2 3 3 2 1 0 0 0 0 0 0 0 1 2 3 3 3 4 4 4 4
0 0 0 0 0 0 0 0 0 0 0 0 0 0 0 0 0 0 0 0 0 0 1 2 3 3 1 0 0 0 0 0 0 0 0 1 2 3 3 4 5 6 6 6
0 0 0 0 0 0 0 0 0 0 0 0 0 0 0 0 0 0 0 0 0 0 1 2 2 2 1 0 0 0 0 0 0 0 0 1 2 3 4 5 6 6 6 6
0 0 0 0 0 0 0 0 0 0 0 0 0 0 0 0 0 0 0 0 0 0 0 1 1 1 0 0 0 0 0 0 0 0 0 0 1 3 4 6 6 6 6 6
0 0 0 0 0 0 0 0 0 0 0 0 0 0 0 0 0 0 0 0 0 0 0 0 0 0 0 0 0 0 0 1 1 0 1 1 1 3 4 6 6 6 6 5
0 0 0 0 0 0 0 0 0 0 0 0 0 0 0 0 0 0 0 0 0 1 1 0 0 0 0 0 0 1 1 2 2 2 2 2 3 3 5 6 6 6 6 6
0 0 0 0 0 0 0 0 0 0 0 0 0 0 0 0 0 0 0 0 0 1 1 0 0 0 0 0 0 1 2 2 2 2 2 2 3 4 6 6 6 6 6 6
0 0 0 0 0 0 0 0 0 0 0 0 0 0 0 0 0 0 0 0 0 1 1 0 0 0 0 0 0 1 1 1 1 1 1 1 1 3 5 5 6 6 6 6
0 0 0 0 0 0 0 0 0 0 0 0 0 0 0 0 0 0 0 0 0 0 0 0 0 0 0 0 0 0 0 0 0 0 0 0 1 2 3 4 4 5 6 6
0 0 0 0 0 0 0 0 0 0 0 0 0 0 0 0 0 0 0 0 0 0 0 0 0 0 0 0 0 0 0 0 0 0 0 0 0 1 2 3 3 4 5 6
0 0 0 0 0 0 0 0 0 0 0 0 0 0 0 0 0 0 0 0 0 0 0 0 0 0 0 0 0 0 0 0 0 0 0 0 0 0 1 2 2 3 4 4
0 0 0 0 0 0 0 0 0 0 0 0 0 0 0 0 0 0 0 0 0 0 0 0 0 0 0 0 0 0 0 0 0 0 0 0 0 0 0 1 1 1 2 2
0 0 0 0 0 0 0 0 0 0 0 0 0 0 0 0 0 0 0 0 0 0 0 0 0 0 0 0 0 0 0 0 0 0 0 0 0 0 0 0 0 0 1 1
0 0 0 0 0 0 0 0 0 0 0 0 0 0 0 0 0 0 0 0 0 0 0 0 0 0 0 0 0 0 0 0 0 0 0 0 0 0 0 0 0 0 0 0
Wind_Speed
1 3 3 6 6 5 4 3 4 5 4 4 5 5 6 5 5 6 7 7 8 8 6 6 7 7 7 6 7 7 6 5 5 3 3 2 1 1 1 1 2 3 3 3
3 3 7 6 4 3 3 2 2 3 2 3 3 5 5 5 7 9 10 10 10 8 5 5 6 7 7 7 7 7 7 6 5 4 3 3 2 1 1 1 1 2 3 3
5 6 4 3 2 2 2 3 3 3 2 1 1 4 4 4 4 6 8 9 10 11 11 9 7 7 7 7 7 7 7 6 5 5 3 3 3 2 1 1 0 0 2 2
3 4 2 2 2 2 3 3 3 3 0 3 1 3 6 4 3 5 7 7 9 9 10 9 9 8 8 8 7 7 6 6 6 6 6 6 4 3 3 2 1 1 1 2
3 2 1 2 3 3 4 3 2 2 2 1 1 1 7 1 4 6 7 9 9 9 10 10 10 10 9 8 7 6 6 6 6 6 6 6 4 3 2 1 2 1 0 1
3 3 3 4 2 2 0 3 4 4 3 2 4 3 6 4 6 6 6 7 8 8 9 9 9 7 6 6 6 6 6 5 5 6 6 6 6 5 4 3 2 1 1 0
4 3 2 2 0 2 5 5 4 4 3 4 2 3 6 6 4 4 5 6 7 7 8 7 7 7 7 7 6 6 7 6 5 6 6 6 6 7 6 5 4 3 2 1
1 5 3 1 4 3 2 7 5 3 3 4 2 3 5 5 2 1 1 2 4 5 6 7 8 8 8 8 7 7 7 6 6 6 6 5 6 5 4 5 4 4 3 3
1 4 3 1 1 5 2 3 5 5 1 1 3 3 5 3 4 3 2 3 3 4 5 5 5 6 6 7 7 8 7 6 6 6 6 5 6 5 5 5 4 3 3 3
2 2 4 2 2 0 4 4 4 3 1 2 3 3 3 3 2 1 1 1 2 2 3 4 4 5 5 5 5 5 6 7 5 5 5 5 5 6 5 5 4 4 4 3
2 1 4 2 2 3 1 1 3 3 4 4 2 5 3 3 2 2 2 2 2 3 3 4 4 4 4 3 3 4 5 5 4 5 5 5 5 5 5 5 5 5 4 4
1 3 1 5 5 2 3 3 4 3 2 3 3 6 3 0 1 1 1 1 2 2 2 3 3 3 3 3 3 3 4 4 4 5 4 5 5 5 5 5 5 4 4 4
2 4 2 5 6 5 2 1 1 3 3 3 3 5 2 2 2 1 1 1 1 1 1 2 2 2 2 3 3 3 3 4 4 4 4 4 5 5 5 5 5 5 5 4
4 3 5 5 5 2 3 4 1 3 3 3 5 6 4 3 2 2 1 1 1 2 2 1 1 1 1 1 2 2 3 3 3 3 4 4 5 6 6 5 5 5 5 4
4 1 2 4 4 2 3 3 2 1 4 5 5 4 4 3 2 1 0 1 2 2 1 1 1 1 0 0 1 1 1 2 3 3 4 5 5 4 4 5 5 4 4 5
2 1 1 3 2 1 2 4 3 3 2 3 1 3 3 2 1 2 1 2 2 1 1 1 0 0 1 1 1 1 2 2 2 3 5 4 4 4 4 4 4 4 4 3
1 2 1 3 3 2 3 4 3 1 1 3 3 4 2 1 1 1 1 2 2 1 1 1 1 1 2 2 2 2 3 2 2 3 3 4 4 4 4 4 4 4 4 4
4 2 2 1 1 3 5 2 2 2 1 1 1 1 0 1 1 2 3 3 2 2 2 2 2 2 2 2 2 2 1 1 2 2 3 3 5 5 4 4 4 4 4 4
5 4 2 2 2 4 4 2 1 2 1 2 1 1 2 2 4 4 4 3 1 1 1 1 1 2 2 2 2 1 1 1 1 1 2 3 4 5 5 5 5 4 3 3
3 3 3 2 2 5 4 4 3 3 1 3 1 1 1 3 2 3 3 3 2 2 2 2 2 2 2 2 2 1 1 1 2 3 3 3 4 5 5 6 5 3 4 4
2 2 2 3 3 5 4 4 2 2 4 3 1 1 1 1 3 3 1 2 2 2 2 2 2 1 1 2 2 1 1 2 3 2 2 2 3 4 5 4 3 3 3 3
3 2 2 2 3 6 4 2 2 4 2 2 1 1 1 1 1 1 0 1 2 2 2 2 2 2 2 1 1 1 2 3 2 1 1 1 1 2 3 3 3 3 3 3
2 4 4 5 5 4 2 1 1 2 2 1 1 1 1 2 1 1 1 1 1 2 3 2 2 2 2 1 0 1 3 2 1 1 1 1 1 1 2 4 4 3 3 3
3 1 2 1 3 2 2 1 1 1 1 1 1 1 1 2 2 2 2 2 2 2 2 2 2 2 3 3 2 2 2 1 1 1 1 1 1 0 1 1 2 3 3 3
3 0 0 2 3 2 2 1 1 1 1 1 1 1 3 3 3 3 3 3 3 3 3 3 2 3 4 3 3 3 2 0 1 1 1 1 1 1 1 1 1 3 3 4
3 4 4 5 5 4 5 4 2 1 2 2 1 2 2 3 4 3 3 3 3 3 3 3 3 3 3 3 3 3 2 1 1 1 1 1 1 1 1 1 1 1 2 4
Wind_Direction
39 87 213 223 206 195 189 200 230 239 220 164 207 237 235 213 198 196 197 192 192 192 193 173 164 157 155 155 153 152 149 153 142 136 135 125 124 98 63 84 98 96 95 97
38 252 234 221 207 189 190 208 251 277 237 176 205 245 242 214 207 202 197 195 193 191 181 177 169 163 161 163 162 163 161 162 161 157 156 150 148 147 147 122 85 96 105 110
193 236 234 209 218 190 217 199 218 235 304 333 92 310 286 256 227 214 201 194 190 187 185 182 176 172 166 167 170 169 170 166 162 150 129 104 76 60 56 58 84 127 124 117
227 248 222 216 232 190 247 231 211 214 124 276 173 271 282 260 241 221 214 201 195 192 186 182 179 177 178 177 170 166 167 164 162 153 149 150 152 165 195 190 187 187 139 126
255 230 189 224 242 190 225 237 217 202 165 303 323 178 284 275 247 242 223 212 202 193 185 184 182 184 181 172 165 163 163 165 165 161 161 159 159 173 167 150 151 166 166 148
243 238 188 208 239 201 135 40 33 45 72 294 247 184 277 249 233 237 227 212 200 188 184 185 182 173 168 164 163 161 165 170 172 169 169 168 167 165 156 159 166 182 194 211
323 303 262 188 271 348 69 75 31 3 6 261 246 171 252 265 246 225 220 208 193 182 174 176 172 170 171 171 175 172 172 180 182 179 182 182 177 173 176 178 179 177 181 203
283 285 264 197 186 198 175 141 154 196 226 278 326 229 260 293 295 289 126 161 158 164 169 175 182 181 180 179 179 179 182 189 189 188 193 189 182 179 186 184 180 184 190 199
194 267 287 258 177 152 152 178 175 150 215 272 282 287 313 350 12 29 69 92 128 158 163 174 181 184 183 181 185 188 186 192 195 194 191 189 186 184 188 185 180 182 187 189
160 269 291 303 29 10 162 154 97 114 166 267 290 270 260 284 311 344 53 148 166 155 162 164 166 177 183 189 190 188 187 192 195 193 190 188 191 188 185 174 177 179 185 182
89 128 313 344 216 221 130 119 121 133 157 162 250 272 240 215 207 219 223 199 179 166 169 175 179 180 175 173 175 184 189 191 194 196 195 185 190 185 177 177 183 181 181 179
68 112 274 274 278 238 173 175 148 157 221 174 182 263 294 209 179 157 209 213 168 155 160 167 163 154 154 167 180 190 196 199 202 197 188 187 185 177 177 182 186 177 177 183
83 95 34 339 341 1 28 55 133 132 132 172 190 252 308 28 17 38 71 31 151 132 112 122 130 146 169 184 193 199 204 209 206 186 180 185 186 181 184 188 183 175 174 177
92 116 167 206 232 276 305 306 303 122 161 210 221 237 289 326 342 350 11 38 134 134 117 106 125 178 179 183 199 206 217 210 198 185 184 192 199 197 193 188 179 180 178 175
85 156 223 248 265 253 273 284 297 227 210 205 231 233 256 273 271 266 12 63 73 63 65 90 166 220 233 319 249 234 230 215 196 189 198 209 206 197 189 185 182 179 175 179
72 173 261 293 281 330 310 300 277 266 243 204 211 271 269 281 9 36 38 77 74 56 47 20 268 247 271 261 261 266 269 247 202 200 210 210 199 187 186 186 178 172 174 177
185 153 144 268 282 3 296 267 219 221 231 179 218 256 274 59 69 64 90 95 89 55 16 342 291 249 261 261 241 242 252 248 210 213 214 200 193 190 193 186 175 180 183 176
170 143 147 231 357 244 248 272 152 125 15 33 87 275 314 127 115 65 74 83 64 37 17 343 322 310 297 281 271 269 271 248 223 224 223 207 192 190 183 178 185 192 184 183
161 146 138 144 209 265 281 293 236 175 308 349 32 13 15 77 65 27 19 41 52 26 355 323 309 293 314 322 305 331 340 322 294 272 255 229 201 191 184 186 194 194 180 185
84 109 131 150 194 236 250 296 303 109 276 321 350 82 63 77 68 293 331 3 13 12 5 348 349 13 3 336 347 29 344 336 278 266 262 240 204 194 194 195 192 192 186 191
23 42 149 188 223 256 269 305 25 142 244 275 265 145 130 165 203 222 288 346 357 357 345 339 355 6 330 331 5 4 343 290 280 283 274 247 217 203 200 195 187 176 176 176
186 182 202 175 214 257 301 32 140 221 227 206 180 158 136 128 124 129 83 336 341 327 316 325 339 323 315 341 21 343 301 290 305 315 309 286 244 213 190 178 178 170 165 171
196 193 187 191 215 255 292 193 215 159 164 223 199 254 131 109 134 264 261 273 288 296 303 309 308 306 311 296 248 277 286 295 311 325 304 293 285 227 185 176 176 174 174 179
296 38 120 244 267 288 320 16 40 141 187 244 228 199 162 188 208 226 242 266 284 286 286 294 307 305 296 284 286 272 286 289 291 266 257 245 201 233 207 178 177 182 190 192
252 269 200 254 273 307 311 310 316 337 339 329 304 234 201 200 227 234 234 250 265 278 280 275 273 276 277 279 283 288 280 277 307 268 253 232 203 189 192 193 201 204 210 200
223 194 195 231 232 222 253 259 268 280 268 252 261 274 251 222 228 240 247 252 256 264 275 280 281 278 275 269 271 280 276 241 223 249 262 254 217 200 192 182 332 318 240 230